User: anonymous
Location: Zlin
(49.2330°N, 17.6670°E)
Time: 20:34:28
(UTC+02:00)
Language:

ISS - Orbit

View from above orbital plane
View from above orbital plane
View from above satellite
View from above satellite

Ground track
Ground track

The orbit data is extracted from the following two-line orbital elements,

1 25544U 98067A   14244.55626565  .00011938  00000-0  21560-3 0    41
2 25544 051.6462 081.0661 0003474 068.9229 043.1533 15.50162689903174
Epoch (UTC): 01 September 2014 13:21:01
Eccentricity: 0.0003474
inclination: 51.6462°
perigee height: 414 km
apogee height: 418 km
right ascension of ascending node: 81.0661°
argument of perigee: 68.9229°
revolutions per day: 15.50162689
mean anomaly at epoch: 43.1533°
orbit number at epoch: 90317

The dashed part of the orbit path shows where the satellite is in the earth's shadow,  

DLR